Regional Weather Roundup
Issued by NWS

Home | Current Version | Previous Version | Graphics & Text | Print | Product List | Glossary Off
Versions: 1 2 3 4 5 6 7 8 9 10 11 12 13 14 15 16 17 18 19 20 21 22 23 24 25 26 27 28 29 30 31 32 33 34 35 36 37 38 39 40 41 42 43 44 45 46 47 48 49 50

000
ASUS43 KMKX 180321
RWRWI

WISCONSIN REGIONAL WEATHER ROUNDUP
NATIONAL WEATHER SERVICE MILWAUKEE/SULLIVAN WI
1000 PM CDT THU APR 17 2014

NOTE: "FAIR" INDICATES FEW OR NO CLOUDS BELOW 12,000 FEET WITH NO
SIGNIFICANT WEATHER AND/OR OBSTRUCTIONS TO VISIBILITY.

WIZ001-002-006>008-014>016-023>028-180400-
NORTHWEST WISCONSIN

CITY           SKY/WX    TMP DP  RH WIND       PRES   REMARKS
SUPERIOR ARPT  CLEAR     29  22  76 CALM      30.32S
ASHLAND        CLOUDY    32  26  78 CALM      30.32R
HAYWARD        CLEAR     28  26  92 CALM      30.30R
SIREN          CLEAR     28  24  88 CALM      30.32R
RICE LAKE      CLEAR     30  26  86 CALM      30.32R
LADYSMITH      CLOUDY    35  27  74 CALM      30.31S
EAU CLAIRE     PTCLDY    30  26  85 CALM      30.32R
MENOMONIE      CLEAR     35  27  74 CALM      30.32R
NEW RICHMOND   CLEAR     30  29  96 CALM      30.32R
OSCEOLA        CLEAR     28  25  89 E3        30.34R
$$

WIZ003>005-009-010-017-018-180400-
NORTH CENTRAL WISCONSIN

CITY           SKY/WX    TMP DP  RH WIND       PRES   REMARKS
WOODRUFF       CLOUDY    33  29  86 CALM      30.26S
RHINELANDER    CLOUDY    32  25  75 NW6       30.26S WCI  26
EAGLE RIVER    CLOUDY    32  25  74 NW7       30.25S WCI  26
LAND O LAKES   CLOUDY    32  28  84 NW5       30.26R WCI  27
PHILLIPS       CLOUDY    32  25  76 CALM      30.27S
TOMAHAWK       CLOUDY    32  26  78 CALM      30.28R
MEDFORD        CLOUDY    32  27  80 NW6       30.28S WCI  26
MERRILL        CLOUDY    33  27  79 CALM      30.28S
$$

WIZ029-030-035-036-043>047-180400-
CENTRAL WISCONSIN

CITY           SKY/WX    TMP DP  RH WIND       PRES   REMARKS
WAUSAU         CLOUDY    35  27  72 NW8       30.27R WCI  29
MOSINEE        CLOUDY    34  30  86 NW5       30.29R WCI  30
MARSHFIELD     CLOUDY    35  27  72 N9        30.28R WCI  28
STEVENS POINT  CLOUDY    35  27  74 NW6       30.29S WCI  30
WAUPACA        CLOUDY    39  30  70 N10       30.29R WCI  32
WAUTOMA        CLOUDY    40  32  73 N9        30.29R WCI  34
WISC RAPIDS    CLOUDY    38  30  73 NW6       30.30R WCI  33
CAMP DOUGLAS   CLOUDY    38  31  76 NW3       30.29S
$$

WIZ011>013-019>022-031-037>040-048>050-180400-
NORTHEAST WISCONSIN

CITY           SKY/WX    TMP DP  RH WIND       PRES   REMARKS
ANTIGO         CLOUDY    33  28  83 NW7       30.27R WCI  27
STURGEON BAY   CLOUDY    37  32  81 CALM      30.27R
GREEN BAY      PTCLDY    39  33  79 W5        30.27R
MANITOWOC      CLOUDY    44  37  76 NE3       30.26R
APPLETON       PTCLDY    36  30  80 NW7       30.27R WCI  30
CLINTONVILLE   CLOUDY    39  32  75 NW9       30.27S WCI  33
OSHKOSH        PTCLDY    38  31  76 NW5       30.27R WCI  34
$$

WIZ032>034-041-042-053>061-180400-
SOUTHWEST WISCONSIN

CITY           SKY/WX    TMP DP  RH WIND       PRES   REMARKS
LA CROSSE      CLOUDY    40  29  64 N6        30.32R
SPARTA         CLOUDY    38  29  68 W3        30.32R
VIROQUA        CLOUDY    37  31  79 N5        30.28S WCI  33
BOSCOBEL       CLEAR     38  30  73 CALM      30.31R
PRAIRIE DU CHI CLEAR     37  30  74 CALM      30.31R
PLATTEVILLE    FAIR      39  32  75 NW7       30.28S WCI  34
$$

WIZ056-057-062-063-064-067-068-180400-
SOUTH CENTRAL WISCONSIN

CITY           SKY/WX    TMP DP  RH WIND       PRES   REMARKS
BARABOO/DELLS  CLEAR     36  31  82 CALM      30.28R
LONE ROCK      CLEAR     40  32  73 N7        30.29R
WATERTOWN      PTCLDY    40  35  80 N6        30.26S
MADISON        PTCLDY    39  32  76 N5        30.29R
MIDDLETON      FAIR      40  34  78 N3        30.28R
MONROE         MOCLDY    46  35  66 NW8       30.25R
JANESVILLE     MOCLDY    46  36  66 NW7       30.24S
$$

WIZ051-052-058>065-066-070>072-180400-
SOUTHEAST WISCONSIN

CITY           SKY/WX    TMP DP  RH WIND       PRES   REMARKS
MILWAUKEE      CLOUDY    47  37  68 CALM      30.25S
WAUKESHA       CLOUDY    43  36  75 NW6       30.26R
MILWAUKEE/TIMM CLOUDY    46  36  66 NW7       30.25S
RACINE         CLOUDY    42  36  79 CALM      30.26S
BURLINGTON     CLOUDY    43  37  80 CALM      30.24S
KENOSHA        CLOUDY    44  37  76 S3        30.24S
FOND DU LAC    PTCLDY    39  33  79 NW6       30.27R WCI  35
SHEBOYGAN      MOCLDY    43  36  76 NW6       30.26S
WEST BEND      CLOUDY    43  34  70 NW7       30.26R
JUNEAU         FAIR      38  32  79 NW5       30.28R WCI  35
$$

LSZ147-162-180400-
LAKE SUPERIOR

STATION/POSITION TIME  TEMP    WIND        PRES    WAVE
                       AIR SEA DIR/SP/G            HT/PER
                 (UTC) (F)     (DEG/KT/KT) (MB)    (FT/S)
DEVILS ISLAND    0300   34     290/ 10/ 11 1027.2R
PORT WING        0240   34     350/  5/  8 1026.4R
SAXON HARBOR     0200           CALM  /  1 1025.7R
$$

LMZ867-665-643>646-180400-
LAKE MICHIGAN

STATION/POSITION TIME  TEMP    WIND        PRES    WAVE
                       AIR SEA DIR/SP/G            HT/PER
                 (UTC) (F)     (DEG/KT/KT) (MB)    (FT/S)
NORTHPORT PIER   0200   36     310/  1/  1 1024.4R
SISTER BAY       0209   36        CALM       N/A
KEWAUNEE LAKESHO 0300   39      20/  4/  5 1025.1R
SHEBOYGAN LAKESH 0300   43     340/  8/ 10 1025.3R
PORT WASHINGTON  0240   48     300/  6/  9 1024.7R
MILWAUKEE LAKESH 0300   48     300/  2/  6   N/A
KENOSHA   LAKESH 0300   44     180/  5/  6   N/A
$$

TC  - TEMPERATURE IN CELSIUS
VSB - VISIBILITY IN STATUTE MILES
WCI - WIND CHILL INDEX
HX  - HEAT INDEX




USA.gov is the U.S. government's official web portal to all federal, state and local government web resources and services.